Content
SEND FEEDBACK

Daily
Averages
Monthly
Summary
United States of America

GREENSBORO, NORTH CAROLINA


Home > North America > United States > North Carolina
Elevation: 886 feet     Latitude: 36 05N     Longitude: 079 57W

WEATHER
 
SELECT A DAY
Number of Records: 102,908;   Date Range: 1/1/95 - 9/3/14
 
SHARE

PRINT THIS DATA

[ ← Previous Day ]
WEATHER ALMANAC - FEBRUARY 1, 2013
[ Next Day → ]
[ °C ]   °F
Weather ElementAverageHighLow
Temperature32 °F39.9 °F (5:54 am)24.1 °F (11:54 pm)
Dewpoint8.6 °F26.6 °F (6:33 am)-2 °F (2:54 pm)
Humidity39.7 %70 % (6:33 am)21 % (2:54 pm)
Barometer30.16 in30.37 in (11:54 pm)29.86 in (3:54 am)
Wind Speed13.8 mph23 mph (8:54 am)
Wind Gust40.3 mph (8:54 am)
Weather ElementAverage
Visibility10 mi
Wind DirectionWNW (277.9 °)

Weather ElementTotal
Precipitation---
Heating Degree Days33 (Base 65)
Averaged from 24 records on February 1, 2013
WEATHER CONDITIONS BREAKOUT
WIND DIRECTION BREAKOUT
WEATHER BY HOUR - FEBRUARY 1, 2013
[ °C ]   °F
Local TimeTemperatureDewpointHumidityBarometerVisibilityWind DirectionWind SpeedGust SpeedPrecipitationEventsConditions
1:54 AM35.1 °F21.0 °F57 %29.93 in10.0 miSW (220°)11.5 mphClear
2:54 AM37.0 °F21.9 °F54 %29.89 in10.0 miSSW (210°)18.4 mph26.5 mphClear
3:54 AM37.9 °F23.0 °F55 %29.86 in10.0 miSW (220°)17.3 mph27.6 mphClear
4:54 AM39.0 °F24.1 °F55 %29.87 in10.0 miWest (260°)13.8 mphMostly Cloudy
5:54 AM39.9 °F24.1 °F53 %29.91 in10.0 miWSW (250°)18.4 mphOvercast
6:33 AM35.6 °F26.6 °F70 %29.96 in10.0 miNW (320°)20.7 mph33.4 mphOvercast
6:54 AM35.1 °F24.1 °F64 %30.00 in10.0 miNNW (330°)13.8 mph26.5 mphOvercast
7:54 AM30.9 °F9.0 °F40 %30.09 in10.0 miNW (310°)17.3 mph28.8 mphPartly Cloudy
8:54 AM30.9 °F3.0 °F31 %30.14 in10.0 miNW (320°)23.0 mph40.3 mphPartly Cloudy
9:54 AM30.0 °F3.0 °F32 %30.19 in10.0 miNW (310°)23.0 mph32.2 mphPartly Cloudy
10:54 AM30.9 °F5.0 °F33 %30.22 in10.0 miNW (310°)16.1 mph24.2 mphClear
11:54 AM30.9 °F-0.9 °F26 %30.25 in10.0 miNW (310°)21.9 mph28.8 mphClear
12:54 PM32.0 °F0.0 °F26 %30.24 in10.0 miNW (310°)20.7 mph27.6 mphClear
1:54 PM34.0 °F1.0 °F25 %30.23 in10.0 miNW (320°)15.0 mph21.9 mphClear
2:54 PM35.1 °F-2.0 °F21 %30.25 in10.0 miNW (320°)17.3 mph27.6 mphClear
3:54 PM34.0 °F-0.9 °F23 %30.26 in10.0 miWNW (300°)19.6 mph27.6 mphClear
4:54 PM33.1 °F0.0 °F24 %30.27 in10.0 miNW (310°)11.5 mph21.9 mphClear
5:54 PM30.9 °F0.0 °F27 %30.29 in10.0 miNNW (330°)6.9 mphClear
6:54 PM28.9 °F1.9 °F32 %30.31 in10.0 miNNW (340°)3.5 mphClear
7:54 PM27.0 °F3.0 °F36 %30.33 in10.0 miNorth (10°)3.5 mphClear
8:54 PM26.1 °F3.9 °F39 %30.36 in10.0 miNNW (330°)4.6 mphClear
9:54 PM25.0 °F5.0 °F43 %30.36 in10.0 miNorth (360°)5.8 mphClear
10:54 PM25.0 °F5.0 °F43 %30.36 in10.0 miNNW (340°)3.5 mphClear
11:54 PM24.1 °F5.0 °F44 %30.37 in10.0 miNNE (30°)4.6 mphClear
Hourly data recorded from KGSO, located miles away from Greensboro, North Carolina







STORIES FROM OUR PARTNERS